| time (UTC) | temp C | wind direction | speed KPH | gust KPH | rain 1hr cm | rain 24hr cm | rain mn cm | humidity % | barometer mb |
| 20260504080353 | 9 | 0 | 0.0 | 6.4 | 0.00 | 0.00 | 0.00 | 52 | 1012.2 |
| 20260504070239 | 10 | 0 | 1.6 | 0.0 | 0.00 | 0.00 | 0.00 | 51 | 1013.0 |
| 20260504045941 | 10 | 0 | 1.6 | 6.4 | 0.00 | 0.00 | 0.00 | 49 | 1014.2 |
| 20260504044937 | 10 | 0 | 1.6 | 6.4 | 0.00 | 0.00 | 0.00 | 49 | 1014.2 |
| 20260504043926 | 10 | 0 | 1.6 | 8.0 | 0.00 | 0.00 | 0.00 | 49 | 1014.3 |
| 20260504042907 | 10 | 0 | 1.6 | 11.3 | 0.00 | 0.00 | 0.00 | 49 | 1014.6 |
| 20260504041922 | 10 | 0 | 1.6 | 11.3 | 0.00 | 0.00 | 0.00 | 50 | 1014.6 |
| 20260504034638 | 10 | 0 | 1.6 | 11.3 | 0.00 | 0.00 | 0.00 | 52 | 1014.8 |
| 20260504033613 | 9 | 0 | 0.0 | 3.2 | 0.00 | 0.00 | 0.00 | 53 | 1014.9 |
| 20260504032546 | 9 | 0 | 0.0 | 3.2 | 0.00 | 0.00 | 0.00 | 54 | 1015.0 |
| 20260504031528 | 9 | 0 | 0.0 | 1.6 | 0.00 | 0.00 | 0.00 | 54 | 1015.1 |
| 20260504030524 | 9 | 0 | 0.0 | 4.8 | 0.00 | 0.00 | 0.00 | 55 | 1015.2 |
| 20260504024324 | 9 | 0 | 0.0 | 1.6 | 0.00 | 0.00 | 0.00 | 54 | 1015.4 |
| 20260504023324 | 9 | 0 | 0.0 | 0.0 | 0.00 | 0.00 | 0.00 | 54 | 1015.4 |
| 20260504022318 | 9 | 0 | 0.0 | 0.0 | 0.00 | 0.00 | 0.00 | 54 | 1015.5 |
| 20260504021252 | 9 | 0 | 1.6 | 6.4 | 0.00 | 0.00 | 0.00 | 55 | 1015.6 |
| 20260504020259 | 9 | 0 | 0.0 | 3.2 | 0.00 | 0.00 | 0.00 | 53 | 1015.6 |
| 20260504015301 | 9 | 0 | 0.0 | 4.8 | 0.00 | 0.00 | 0.00 | 54 | 1015.5 |
| 20260504013148 | 9 | 0 | 0.0 | 3.2 | 0.00 | 0.00 | 0.00 | 54 | 1015.5 |
| 20260504012122 | 9 | 0 | 0.0 | 1.6 | 0.00 | 0.00 | 0.00 | 54 | 1015.7 |
| 20260504011117 | 9 | 0 | 0.0 | 1.6 | 0.00 | 0.00 | 0.00 | 54 | 1015.6 |
| 20260504010112 | 9 | 0 | 0.0 | 0.0 | 0.00 | 0.00 | 0.00 | 54 | 1015.5 |
| 20260504005118 | 9 | 0 | 0.0 | 4.8 | 0.00 | 0.00 | 0.00 | 54 | 1015.5 |
| 20260504004044 | 9 | 0 | 0.0 | 0.0 | 0.00 | 0.00 | 0.00 | 53 | 1015.5 |
| 20260504003056 | 9 | 0 | 0.0 | 0.0 | 0.00 | 0.00 | 0.00 | 53 | 1015.5 |
| 20260504002047 | 9 | 0 | 0.0 | 0.0 | 0.00 | 0.00 | 0.00 | 53 | 1015.5 |
| 20260504001022 | 9 | 0 | 0.0 | 1.6 | 0.00 | 0.00 | 0.00 | 53 | 1015.6 |
| 20260503235952 | 9 | 0 | 0.0 | 1.6 | 0.00 | 0.00 | 0.00 | 53 | 1015.9 |
| 20260503234934 | 9 | 0 | 0.0 | 1.6 | 0.00 | 0.00 | 0.00 | 54 | 1016.0 |
| 20260503232739 | 10 | 0 | 3.2 | 20.9 | 0.00 | 0.00 | 0.00 | 53 | 1016.3 |
| 20260503231745 | 10 | 0 | 9.7 | 25.7 | 0.00 | 0.00 | 0.00 | 51 | 1016.8 |
| 20260503230750 | 10 | 0 | 11.3 | 35.4 | 0.00 | 0.00 | 0.00 | 49 | 1016.9 |
| 20260503225750 | 11 | 0 | 12.9 | 35.4 | 0.00 | 0.00 | 0.00 | 46 | 1016.8 |
| 20260503224747 | 11 | 0 | 11.3 | 30.6 | 0.00 | 0.00 | 0.00 | 43 | 1016.8 |
| 20260503223720 | 12 | 0 | 14.5 | 40.2 | 0.00 | 0.00 | 0.00 | 38 | 1016.7 |
| 20260503222709 | 13 | 0 | 12.9 | 40.2 | 0.00 | 0.00 | 0.00 | 32 | 1016.7 |
| 20260503221724 | 14 | 0 | 11.3 | 37.0 | 0.00 | 0.00 | 0.00 | 27 | 1016.3 |
| 20260503220726 | 15 | 0 | 8.0 | 29.0 | 0.00 | 0.00 | 0.00 | 26 | 1016.3 |
| 20260503214547 | 15 | 0 | 9.7 | 27.4 | 0.00 | 0.00 | 0.00 | 25 | 1016.3 |
| 20260503213533 | 15 | 0 | 9.7 | 27.4 | 0.00 | 0.00 | 0.00 | 25 | 1016.3 |
| 20260503212505 | 15 | 0 | 9.7 | 25.7 | 0.00 | 0.00 | 0.00 | 24 | 1016.4 |
| 20260503210312 | 16 | 0 | 6.4 | 27.4 | 0.00 | 0.00 | 0.00 | 23 | 1016.5 |
| 20260503205304 | 16 | 0 | 9.7 | 27.4 | 0.00 | 0.00 | 0.00 | 22 | 1016.6 |
| 20260503204315 | 16 | 0 | 9.7 | 25.7 | 0.00 | 0.00 | 0.00 | 23 | 1016.8 |
| 20260503203318 | 16 | 0 | 4.8 | 17.7 | 0.00 | 0.00 | 0.00 | 25 | 1016.9 |
| 20260503202307 | 17 | 0 | 4.8 | 20.9 | 0.00 | 0.00 | 0.00 | 24 | 1017.0 |
| 20260503200141 | 16 | 0 | 6.4 | 29.0 | 0.00 | 0.00 | 0.00 | 22 | 1017.1 |
| 20260503195122 | 16 | 0 | 9.7 | 29.0 | 0.00 | 0.00 | 0.00 | 25 | 1017.2 |
| 20260503192921 | 17 | 0 | 8.0 | 32.2 | 0.00 | 0.00 | 0.00 | 24 | 1017.4 |
| 20260503190723 | 17 | 0 | 6.4 | 22.5 | 0.00 | 0.00 | 0.00 | 23 | 1018.0 |
| 20260503185711 | 17 | 0 | 6.4 | 19.3 | 0.00 | 0.00 | 0.00 | 23 | 1018.2 |
| 20260503183556 | 16 | 0 | 6.4 | 27.4 | 0.00 | 0.00 | 0.00 | 24 | 1018.5 |
| 20260503182621 | 16 | 0 | 8.0 | 27.4 | 0.00 | 0.00 | 0.00 | 23 | 1018.5 |
| 20260503172020 | 15 | 0 | 9.7 | 25.7 | 0.00 | 0.00 | 0.00 | 24 | 1019.8 |
| 20260503171028 | 15 | 0 | 8.0 | 25.7 | 0.00 | 0.00 | 0.00 | 25 | 1019.9 |
| 20260503150755 | 13 | 0 | 6.4 | 24.1 | 0.00 | 0.00 | 0.00 | 32 | 1020.6 |